Regional Weather Roundup
Issued by NWS Cleveland, OH

Home | Current Version | Previous Version | Text Only | Print | Product List | Glossary Off
Versions: 1 2 3 4 5 6 7 8 9 10 11 12 13 14 15 16 17 18 19 20 21 22 23 24 25 26 27 28 29 30 31 32 33 34 35 36 37 38 39 40 41 42 43 44 45 46 47 48 49 50

000
ASUS41 KCLE 290300
RWRCLE
OHIO REGIONAL WEATHER ROUNDUP
NATIONAL WEATHER SERVICE WILMINGTON, OH
1100 PM EDT TUE JUL 28 2015

NOTE: "FAIR" INDICATES FEW OR NO CLOUDS BELOW 12,000 FEET WITH NO
SIGNIFICANT WEATHER AND/OR OBSTRUCTIONS TO VISIBILITY.

OHZ001>008-015>018-024>027-034-035-043-044-290400-
   NORTHWEST OHIO

CITY           SKY/WX    TMP DP  RH WIND       PRES   REMARKS
DEFIANCE       PTCLDY    76  66  71 E5        30.01R
FINDLAY        CLEAR     77  65  66 E9        29.99R
TOLEDO EXPRESS CLEAR     70  65  84 CALM      30.01R
TOLEDO EXEC    CLEAR     74  65  73 E3        30.01R
LIMA           CLEAR     74  67  78 NE3       30.02R
$$

OHZ009>014-019>023-028>033-038-089-290400-
   NORTHEAST OHIO

CITY           SKY/WX    TMP DP  RH WIND       PRES   REMARKS
CLE-HOPKINS    MOCLDY    79  60  52 E7        30.01R
CLE-LAKEFRONT  PTCLDY    81  58  45 E7        29.98R
CUY CO. ARPT   PTCLDY    79  61  53 SE7       30.01R
LORAIN-ELYRIA  CLEAR     70  63  78 CALM      30.01R
ASHTABULA      PTCLDY    68  65  90 CALM      30.02R
AKRON-CANTON   PTCLDY    74  64  71 NE7       30.02R
WOOSTER        NOT AVBL
MANSFIELD      CLEAR     72  65  78 CALM      30.03R
YOUNGSTOWN     MOCLDY    70  64  81 E5        30.02R
$$

OHZ042-051>053-060>062-070>072-077>081-290400-
  SOUTHWEST OHIO

CITY           SKY/WX    TMP DP  RH WIND       PRES   REMARKS
CINC-COVINGTON MOCLDY    81  73  76 CALM      30.01R
CINC-LUNKEN    MOCLDY    78  76  93 W3        30.00R
HAMILTON       LGT RAIN  76  73  91 CALM      30.01R
DAYTON         NOT AVBL
WRIGHT-PAT AFB PTCLDY    79  73  80 W3        30.00R
DAYTON GENERAL PTCLDY    80  71  74 CALM      30.01R
WILMINGTON     PTCLDY    76  72  87 CALM      30.01R
$$

OHZ036-037-039>041-045>050-054>059-063>069-073>076-082>088-290400-
  CENTRAL AND SOUTHEAST OHIO

CITY           SKY/WX    TMP DP  RH WIND       PRES   REMARKS
COLUMBUS       PTCLDY    79  68  69 CALM      29.98R
OSU AIRPORT    CLEAR     78  68  71 CALM      30.00R
BOLTON FIELD   NOT AVBL
RICKENBACK AFB NOT AVBL
NEWARK         PTCLDY    73  70  90 CALM      29.99R FOG
MARION         CLEAR     75  67  76 N3        30.02R
LANCASTER      PTCLDY    72  69  90 CALM      30.00R FOG
ZANESVILLE     PTCLDY    76  70  82 CALM      29.99R HAZE
NEW PHILLY     PTCLDY    72  70  93 CALM      30.00S FOG
$$


USA.gov is the U.S. government's official web portal to all federal, state and local government web resources and services.